Time,TemperatureF,DewpointF,PressureIn,WindDirection,WindDirectionDegrees,WindSpeedMPH,WindSpeedGustMPH,Humidity,HourlyPrecipIn,Conditions,Clouds,dailyrainin,SoftwareType,DateUTC
2013-09-18 00:01:00,67.8,25.2,30.15,WSW,251,0.0,0.0,20,0.00,,,-99.99,Weather View 32 v60,2013-09-18 04:01:00,
2013-09-18 00:06:00,67.8,25.2,30.15,South,190,0.0,0.0,20,0.00,,,-99.99,Weather View 32 v60,2013-09-18 04:06:00,
2013-09-18 00:11:00,67.8,25.2,30.15,South,173,0.0,0.0,20,0.00,,,-99.99,Weather View 32 v60,2013-09-18 04:11:00,
2013-09-18 00:13:00,67.8,25.2,30.15,South,173,0.0,0.0,20,0.00,,,-99.99,Weather View 32 v60,2013-09-18 04:13:00,
2013-09-18 00:21:00,67.8,25.2,30.15,WSW,242,0.0,0.0,20,0.00,,,-99.99,Weather View 32 v60,2013-09-18 04:21:00,
2013-09-18 00:26:00,68.0,25.3,30.15,WSW,242,0.0,0.0,20,0.00,,,-99.99,Weather View 32 v60,2013-09-18 04:26:00,
2013-09-18 00:31:00,68.0,25.3,30.15,North,351,0.0,0.0,20,0.00,,,-99.99,Weather View 32 v60,2013-09-18 04:31:00,
2013-09-18 00:36:00,68.0,25.3,30.15,SSW,210,0.0,0.0,20,0.00,,,-99.99,Weather View 32 v60,2013-09-18 04:36:00,
2013-09-18 00:41:00,68.0,25.3,30.15,WSW,245,0.0,0.0,20,0.00,,,-99.99,Weather View 32 v60,2013-09-18 04:41:00,
2013-09-18 00:46:00,68.0,25.3,30.15,SSE,160,0.0,0.0,20,0.00,,,-99.99,Weather View 32 v60,2013-09-18 04:46:00,
2013-09-18 00:56:00,68.0,25.3,30.15,SSE,157,0.0,0.0,20,0.00,,,-99.99,Weather View 32 v60,2013-09-18 04:56:00,
2013-09-18 01:01:00,68.0,25.3,30.15,SW,222,0.0,0.0,20,0.00,,,-99.99,Weather View 32 v60,2013-09-18 05:01:00,
2013-09-18 01:07:00,68.0,25.3,30.15,SW,221,0.0,0.0,20,0.00,,,-99.99,Weather View 32 v60,2013-09-18 05:07:00,
2013-09-18 01:14:00,68.0,25.3,30.12,SSE,151,0.0,0.0,20,0.00,,,-99.99,Weather View 32 v60,2013-09-18 05:14:00,
2013-09-18 01:21:00,67.8,25.2,30.12,SSW,213,0.0,0.0,20,0.00,,,-99.99,Weather View 32 v60,2013-09-18 05:21:00,
2013-09-18 01:31:00,67.8,25.2,30.12,SE,127,0.0,0.0,20,0.00,,,-99.99,Weather View 32 v60,2013-09-18 05:31:00,
2013-09-18 01:36:00,67.8,21.3,30.12,ESE,104,0.0,0.0,17,0.00,,,-99.99,Weather View 32 v60,2013-09-18 05:36:00,
2013-09-18 01:46:00,67.8,21.3,30.15,East,100,0.0,0.0,17,0.00,,,-99.99,Weather View 32 v60,2013-09-18 05:46:00,
2013-09-18 01:51:00,67.8,21.3,30.15,East,100,0.0,0.0,17,0.00,,,-99.99,Weather View 32 v60,2013-09-18 05:51:00,
2013-09-18 01:57:00,67.8,21.3,30.15,SSW,199,0.0,0.0,17,0.00,,,-99.99,Weather View 32 v60,2013-09-18 05:57:00,
2013-09-18 02:06:00,67.8,21.3,30.15,SW,230,0.0,0.0,17,0.00,,,-99.99,Weather View 32 v60,2013-09-18 06:06:00,
2013-09-18 02:11:00,67.6,21.2,30.15,South,174,0.0,0.0,17,0.00,,,-99.99,Weather View 32 v60,2013-09-18 06:11:00,
2013-09-18 02:16:00,67.6,21.2,30.15,SSW,199,0.0,0.0,17,0.00,,,-99.99,Weather View 32 v60,2013-09-18 06:16:00,
2013-09-18 02:26:00,67.6,21.2,30.15,SSW,204,0.0,0.0,17,0.00,,,-99.99,Weather View 32 v60,2013-09-18 06:26:00,
2013-09-18 02:36:00,67.5,21.0,30.15,SW,232,0.0,0.0,17,0.00,,,-99.99,Weather View 32 v60,2013-09-18 06:36:00,
2013-09-18 02:41:00,67.5,21.0,30.15,SSE,162,0.0,0.0,17,0.00,,,-99.99,Weather View 32 v60,2013-09-18 06:41:00,
2013-09-18 02:46:00,67.5,21.0,30.15,South,189,0.0,0.0,17,0.00,,,-99.99,Weather View 32 v60,2013-09-18 06:46:00,
2013-09-18 02:56:00,67.5,21.0,30.12,WSW,238,0.0,0.0,17,0.00,,,-99.99,Weather View 32 v60,2013-09-18 06:56:00,
2013-09-18 03:01:00,67.3,20.9,30.12,ENE,70,0.0,0.0,17,0.00,,,-99.99,Weather View 32 v60,2013-09-18 07:01:00,
2013-09-18 03:11:00,67.3,20.9,30.12,SSE,151,0.0,0.0,17,0.00,,,-99.99,Weather View 32 v60,2013-09-18 07:11:00,
2013-09-18 03:16:00,67.3,20.9,30.12,SSE,160,0.0,0.0,17,0.00,,,-99.99,Weather View 32 v60,2013-09-18 07:16:00,
2013-09-18 03:22:00,67.3,20.9,30.12,SSW,208,0.0,0.0,17,0.00,,,-99.99,Weather View 32 v60,2013-09-18 07:22:00,
2013-09-18 03:27:00,67.3,20.9,30.12,SSE,152,0.0,0.0,17,0.00,,,-99.99,Weather View 32 v60,2013-09-18 07:27:00,
2013-09-18 03:32:00,67.3,20.9,30.12,South,174,0.0,0.0,17,0.00,,,-99.99,Weather View 32 v60,2013-09-18 07:32:00,
2013-09-18 03:41:00,67.3,20.9,30.12,South,190,0.0,0.0,17,0.00,,,-99.99,Weather View 32 v60,2013-09-18 07:41:00,
2013-09-18 03:46:00,67.1,20.7,30.12,SSW,212,0.0,0.0,17,0.00,,,-99.99,Weather View 32 v60,2013-09-18 07:46:00,
2013-09-18 03:56:00,67.1,20.7,30.12,SE,140,0.0,0.0,17,0.00,,,-99.99,Weather View 32 v60,2013-09-18 07:56:00,
2013-09-18 04:01:00,66.9,20.6,30.12,SE,124,0.0,0.0,17,0.00,,,-99.99,Weather View 32 v60,2013-09-18 08:01:00,
2013-09-18 04:11:00,66.9,20.6,30.12,SW,218,0.0,0.0,17,0.00,,,-99.99,Weather View 32 v60,2013-09-18 08:11:00,
2013-09-18 04:21:00,66.7,20.4,30.12,NNW,329,0.0,0.0,17,0.00,,,-99.99,Weather View 32 v60,2013-09-18 08:21:00,
2013-09-18 04:26:00,66.7,20.4,30.12,NNW,329,0.0,0.0,17,0.00,,,-99.99,Weather View 32 v60,2013-09-18 08:26:00,
2013-09-18 04:36:00,66.6,20.3,30.12,West,262,0.0,0.0,17,0.00,,,-99.99,Weather View 32 v60,2013-09-18 08:36:00,
2013-09-18 04:41:00,66.6,20.3,30.12,West,262,0.0,0.0,17,0.00,,,-99.99,Weather View 32 v60,2013-09-18 08:41:00,
2013-09-18 04:51:00,66.6,20.3,30.12,West,262,0.0,0.0,17,0.00,,,-99.99,Weather View 32 v60,2013-09-18 08:51:00,
2013-09-18 04:56:00,66.6,20.3,30.12,West,262,0.0,0.0,17,0.00,,,-99.99,Weather View 32 v60,2013-09-18 08:56:00,
2013-09-18 05:02:00,66.4,20.2,30.12,NE,55,0.0,0.0,17,0.00,,,-99.99,Weather View 32 v60,2013-09-18 09:02:00,
2013-09-18 05:11:00,66.4,20.2,30.12,East,98,0.0,0.0,17,0.00,,,-99.99,Weather View 32 v60,2013-09-18 09:11:00,
2013-09-18 05:16:00,66.4,20.2,30.12,SW,222,0.0,0.0,17,0.00,,,-99.99,Weather View 32 v60,2013-09-18 09:16:00,
2013-09-18 05:26:00,66.4,20.2,30.12,SW,235,0.0,0.0,17,0.00,,,-99.99,Weather View 32 v60,2013-09-18 09:26:00,
2013-09-18 05:31:00,66.4,20.2,30.12,South,170,0.0,0.0,17,0.00,,,-99.99,Weather View 32 v60,2013-09-18 09:31:00,
2013-09-18 05:36:00,66.4,20.2,30.12,SW,230,0.0,0.0,17,0.00,,,-99.99,Weather View 32 v60,2013-09-18 09:36:00,
2013-09-18 05:46:00,66.4,20.2,30.12,SSE,148,0.0,0.0,17,0.00,,,-99.99,Weather View 32 v60,2013-09-18 09:46:00,
2013-09-18 06:01:00,66.2,20.0,30.12,SSW,202,0.0,0.0,17,0.00,,,-99.99,Weather View 32 v60,2013-09-18 10:01:00,
2013-09-18 06:06:00,66.2,20.0,30.12,SW,223,0.0,0.0,17,0.00,,,-99.99,Weather View 32 v60,2013-09-18 10:06:00,
2013-09-18 06:12:00,66.2,20.0,30.15,WSW,257,0.0,0.0,17,0.00,,,-99.99,Weather View 32 v60,2013-09-18 10:12:00,
2013-09-18 06:17:00,66.2,20.0,30.15,NNE,31,0.0,0.0,17,0.00,,,-99.99,Weather View 32 v60,2013-09-18 10:17:00,
2013-09-18 06:26:00,66.0,19.9,30.15,ESE,105,0.0,0.0,17,0.00,,,-99.99,Weather View 32 v60,2013-09-18 10:26:00,
2013-09-18 06:36:00,65.8,19.7,30.15,ESE,112,0.0,0.0,17,0.00,,,-99.99,Weather View 32 v60,2013-09-18 10:36:00,
2013-09-18 06:41:00,65.8,19.7,30.15,ESE,112,0.0,0.0,17,0.00,,,-99.99,Weather View 32 v60,2013-09-18 10:41:00,
2013-09-18 06:51:00,65.7,19.6,30.15,ESE,102,0.0,0.0,17,0.00,,,-99.99,Weather View 32 v60,2013-09-18 10:51:00,
2013-09-18 06:56:00,65.7,19.6,30.15,ESE,120,0.0,0.0,17,0.00,,,-99.99,Weather View 32 v60,2013-09-18 10:56:00,
2013-09-18 07:01:00,65.7,19.6,30.15,South,181,0.0,0.0,17,0.00,,,-99.99,Weather View 32 v60,2013-09-18 11:01:00,
2013-09-18 07:11:00,65.5,19.4,30.15,SSE,160,0.0,0.0,17,0.00,,,-99.99,Weather View 32 v60,2013-09-18 11:11:00,
2013-09-18 07:16:00,65.5,19.4,30.15,SSW,195,0.0,0.0,17,0.00,,,-99.99,Weather View 32 v60,2013-09-18 11:16:00,
2013-09-18 07:26:00,65.5,19.4,30.15,West,262,0.0,0.0,17,0.00,,,-99.99,Weather View 32 v60,2013-09-18 11:26:00,
2013-09-18 07:31:00,65.3,19.3,30.15,SSE,152,0.0,0.0,17,0.00,,,-99.99,Weather View 32 v60,2013-09-18 11:31:00,
2013-09-18 07:41:00,65.3,20.6,30.15,SE,138,0.0,0.0,18,0.00,,,-99.99,Weather View 32 v60,2013-09-18 11:41:00,
2013-09-18 07:46:00,65.1,20.5,30.15,NNE,15,0.0,0.0,18,0.00,,,-99.99,Weather View 32 v60,2013-09-18 11:46:00,
2013-09-18 07:56:00,65.1,20.5,30.18,South,169,0.0,0.0,18,0.00,,,-99.99,Weather View 32 v60,2013-09-18 11:56:00,
2013-09-18 08:01:00,65.1,20.5,30.18,SE,131,0.0,0.0,18,0.00,,,-99.99,Weather View 32 v60,2013-09-18 12:01:00,
2013-09-18 08:11:00,65.1,20.5,30.18,SE,140,0.0,0.0,18,0.00,,,-99.99,Weather View 32 v60,2013-09-18 12:11:00,
2013-09-18 08:17:00,65.1,20.5,30.18,ESE,108,0.0,0.0,18,0.00,,,-99.99,Weather View 32 v60,2013-09-18 12:17:00,
2013-09-18 08:26:00,64.9,20.3,30.18,ESE,115,0.0,0.0,18,0.00,,,-99.99,Weather View 32 v60,2013-09-18 12:26:00,
2013-09-18 08:31:00,64.9,20.3,30.18,ESE,115,0.0,0.0,18,0.00,,,-99.99,Weather View 32 v60,2013-09-18 12:31:00,
2013-09-18 08:37:00,65.1,20.5,30.18,NE,56,0.0,0.0,18,0.00,,,-99.99,Weather View 32 v60,2013-09-18 12:37:00,
2013-09-18 08:42:00,65.1,20.5,30.18,ENE,73,0.0,0.0,18,0.00,,,-99.99,Weather View 32 v60,2013-09-18 12:42:00,
2013-09-18 08:51:00,65.3,23.1,30.18,South,191,0.0,0.0,20,0.00,,,-99.99,Weather View 32 v60,2013-09-18 12:51:00,
2013-09-18 08:56:00,65.1,23.0,30.18,East,79,0.0,0.0,20,0.00,,,-99.99,Weather View 32 v60,2013-09-18 12:56:00,
2013-09-18 09:01:00,65.1,23.0,30.18,East,79,0.0,0.0,20,0.00,,,-99.99,Weather View 32 v60,2013-09-18 13:01:00,
2013-09-18 09:07:00,65.1,23.0,30.18,East,94,0.0,0.0,20,0.00,,,-99.99,Weather View 32 v60,2013-09-18 13:07:00,
2013-09-18 09:16:00,65.3,23.1,30.18,ESE,116,0.0,0.0,20,0.00,,,-99.99,Weather View 32 v60,2013-09-18 13:16:00,
2013-09-18 09:21:00,65.3,23.1,30.18,ESE,112,0.0,0.0,20,0.00,,,-99.99,Weather View 32 v60,2013-09-18 13:21:00,
2013-09-18 09:26:00,65.3,23.1,30.18,East,88,0.0,0.0,20,0.00,,,-99.99,Weather View 32 v60,2013-09-18 13:26:00,
2013-09-18 09:32:00,65.5,23.3,30.18,ESE,103,0.0,0.0,20,0.00,,,-99.99,Weather View 32 v60,2013-09-18 13:32:00,
2013-09-18 09:41:00,65.5,23.3,30.18,ESE,121,0.0,0.0,20,0.00,,,-99.99,Weather View 32 v60,2013-09-18 13:41:00,
2013-09-18 09:47:00,65.5,23.3,30.18,East,85,0.0,0.0,20,0.00,,,-99.99,Weather View 32 v60,2013-09-18 13:47:00,
2013-09-18 09:57:00,65.7,23.4,30.18,SE,137,0.0,0.0,20,0.00,,,-99.99,Weather View 32 v60,2013-09-18 13:57:00,
2013-09-18 10:06:00,66.4,24.0,30.18,SSE,165,0.0,0.0,20,0.00,,,-99.99,Weather View 32 v60,2013-09-18 14:06:00,
2013-09-18 10:11:00,66.6,24.2,30.18,SSE,149,0.0,0.0,20,0.00,,,-99.99,Weather View 32 v60,2013-09-18 14:11:00,
2013-09-18 10:16:00,66.9,24.5,30.18,SSE,164,0.0,0.0,20,0.00,,,-99.99,Weather View 32 v60,2013-09-18 14:16:00,
2013-09-18 10:26:00,67.3,24.7,30.18,ESE,112,0.0,0.0,20,0.00,,,-99.99,Weather View 32 v60,2013-09-18 14:26:00,
2013-09-18 10:31:00,67.5,24.9,30.18,SSE,160,0.0,0.0,20,0.00,,,-99.99,Weather View 32 v60,2013-09-18 14:31:00,
2013-09-18 10:36:00,67.6,25.0,30.18,ESE,120,0.0,0.0,20,0.00,,,-99.99,Weather View 32 v60,2013-09-18 14:36:00,
2013-09-18 10:46:00,68.0,25.3,30.18,WSW,251,0.0,0.0,20,0.00,,,-99.99,Weather View 32 v60,2013-09-18 14:46:00,
2013-09-18 10:56:00,67.8,25.2,30.18,ESE,105,0.0,0.0,20,0.00,,,-99.99,Weather View 32 v60,2013-09-18 14:56:00,
2013-09-18 11:01:00,67.8,25.2,30.18,SE,124,0.0,0.0,20,0.00,,,-99.99,Weather View 32 v60,2013-09-18 15:01:00,
2013-09-18 11:06:00,67.8,25.2,30.18,SE,124,0.0,0.0,20,0.00,,,-99.99,Weather View 32 v60,2013-09-18 15:06:00,
2013-09-18 11:11:00,68.0,25.3,30.18,SE,136,0.0,0.0,20,0.00,,,-99.99,Weather View 32 v60,2013-09-18 15:11:00,
2013-09-18 11:17:00,68.7,25.9,30.18,ESE,114,0.0,0.0,20,0.00,,,-99.99,Weather View 32 v60,2013-09-18 15:17:00,
2013-09-18 11:26:00,69.4,25.3,30.18,SE,125,0.0,0.0,19,0.00,,,-99.99,Weather View 32 v60,2013-09-18 15:26:00,
2013-09-18 11:36:00,70.2,25.9,30.18,SE,125,0.0,0.0,19,0.00,,,-99.99,Weather View 32 v60,2013-09-18 15:36:00,
2013-09-18 11:46:00,71.1,26.6,30.15,ESE,114,0.0,0.0,19,0.00,,,-99.99,Weather View 32 v60,2013-09-18 15:46:00,
2013-09-18 11:51:00,71.4,26.9,30.15,NW,307,0.0,0.0,19,0.00,,,-99.99,Weather View 32 v60,2013-09-18 15:51:00,
2013-09-18 12:01:00,72.3,27.7,30.15,ESE,111,0.0,0.0,19,0.00,,,-99.99,Weather View 32 v60,2013-09-18 16:01:00,
2013-09-18 12:06:00,72.3,27.7,30.15,NE,38,0.0,0.0,19,0.00,,,-99.99,Weather View 32 v60,2013-09-18 16:06:00,
2013-09-18 12:16:00,72.0,23.2,30.15,SE,127,0.0,0.0,16,0.00,,,-99.99,Weather View 32 v60,2013-09-18 16:16:00,
2013-09-18 12:20:00,72.0,23.2,30.15,SE,127,0.0,0.0,16,0.00,,,-99.99,Weather View 32 v60,2013-09-18 16:20:00,
2013-09-18 12:26:00,72.5,23.7,30.15,SW,220,0.0,0.0,16,0.00,,,-99.99,Weather View 32 v60,2013-09-18 16:26:00,
2013-09-18 12:31:00,72.3,23.5,30.15,South,174,0.0,0.0,16,0.00,,,-99.99,Weather View 32 v60,2013-09-18 16:31:00,
2013-09-18 12:36:00,72.0,23.2,30.15,NE,42,0.0,0.0,16,0.00,,,-99.99,Weather View 32 v60,2013-09-18 16:36:00,
2013-09-18 12:46:00,72.9,23.9,30.15,WSW,243,0.0,0.0,16,0.00,,,-99.99,Weather View 32 v60,2013-09-18 16:46:00,
2013-09-18 12:52:00,73.6,24.5,30.15,WSW,241,0.0,0.0,16,0.00,,,-99.99,Weather View 32 v60,2013-09-18 16:52:00,
2013-09-18 13:06:00,73.9,24.8,30.15,South,169,0.0,0.0,16,0.00,,,-99.99,Weather View 32 v60,2013-09-18 17:06:00,
2013-09-18 13:12:00,73.6,24.5,30.15,SW,232,0.0,0.0,16,0.00,,,-99.99,Weather View 32 v60,2013-09-18 17:12:00,
2013-09-18 13:17:00,73.9,24.8,30.15,WNW,289,0.0,0.0,16,0.00,,,-99.99,Weather View 32 v60,2013-09-18 17:17:00,
2013-09-18 13:26:00,75.7,24.7,30.15,East,93,0.0,0.0,15,0.00,,,-99.99,Weather View 32 v60,2013-09-18 17:26:00,
2013-09-18 13:31:00,76.1,25.0,30.15,West,261,0.0,0.0,15,0.00,,,-99.99,Weather View 32 v60,2013-09-18 17:31:00,
2013-09-18 13:36:00,74.8,24.0,30.15,West,261,0.0,0.0,15,0.00,,,-99.99,Weather View 32 v60,2013-09-18 17:36:00,
2013-09-18 13:42:00,74.1,25.0,30.12,West,261,0.0,0.0,16,0.00,,,-99.99,Weather View 32 v60,2013-09-18 17:42:00,
2013-09-18 13:51:00,73.8,24.7,30.12,WSW,245,0.0,0.0,16,0.00,,,-99.99,Weather View 32 v60,2013-09-18 17:51:00,
2013-09-18 13:56:00,73.4,24.4,30.12,West,268,0.0,0.0,16,0.00,,,-99.99,Weather View 32 v60,2013-09-18 17:56:00,
2013-09-18 14:01:00,73.2,24.2,30.12,West,268,0.0,0.0,16,0.00,,,-99.99,Weather View 32 v60,2013-09-18 18:01:00,
2013-09-18 14:11:00,72.9,23.9,30.12,West,268,0.0,0.0,16,0.00,,,-99.99,Weather View 32 v60,2013-09-18 18:11:00,
2013-09-18 14:16:00,72.5,23.7,30.12,West,268,0.0,0.0,16,0.00,,,-99.99,Weather View 32 v60,2013-09-18 18:16:00,
2013-09-18 14:22:00,72.5,23.7,30.12,West,268,0.0,0.0,16,0.00,,,-99.99,Weather View 32 v60,2013-09-18 18:22:00,
2013-09-18 14:32:00,72.9,23.9,30.12,WNW,289,0.0,0.0,16,0.00,,,-99.99,Weather View 32 v60,2013-09-18 18:32:00,
2013-09-18 14:41:00,72.9,23.9,30.12,WNW,289,0.0,0.0,16,0.00,,,-99.99,Weather View 32 v60,2013-09-18 18:41:00,
2013-09-18 14:46:00,72.5,23.7,30.12,WNW,289,0.0,0.0,16,0.00,,,-99.99,Weather View 32 v60,2013-09-18 18:46:00,
2013-09-18 14:57:00,71.8,23.1,30.12,WNW,289,0.0,0.0,16,0.00,,,-99.99,Weather View 32 v60,2013-09-18 18:57:00,
2013-09-18 15:06:00,71.2,22.6,30.12,WNW,289,0.0,0.0,16,0.00,,,-99.99,Weather View 32 v60,2013-09-18 19:06:00,
2013-09-18 15:11:00,71.2,22.6,30.12,WNW,289,0.0,0.0,16,0.00,,,-99.99,Weather View 32 v60,2013-09-18 19:11:00,
2013-09-18 15:16:00,71.4,22.8,30.12,WNW,289,0.0,0.0,16,0.00,,,-99.99,Weather View 32 v60,2013-09-18 19:16:00,
2013-09-18 15:22:00,71.6,22.9,30.12,WNW,288,0.0,0.0,16,0.00,,,-99.99,Weather View 32 v60,2013-09-18 19:22:00,
2013-09-18 15:31:00,71.6,22.9,30.09,West,268,0.0,0.0,16,0.00,,,-99.99,Weather View 32 v60,2013-09-18 19:31:00,
2013-09-18 15:37:00,71.6,22.9,30.09,West,268,0.0,0.0,16,0.00,,,-99.99,Weather View 32 v60,2013-09-18 19:37:00,
2013-09-18 15:46:00,71.4,22.8,30.09,West,268,0.0,0.0,16,0.00,,,-99.99,Weather View 32 v60,2013-09-18 19:46:00,
2013-09-18 15:51:00,71.4,22.8,30.09,West,268,0.0,0.0,16,0.00,,,-99.99,Weather View 32 v60,2013-09-18 19:51:00,
2013-09-18 15:56:00,71.4,22.8,30.09,West,268,0.0,0.0,16,0.00,,,-99.99,Weather View 32 v60,2013-09-18 19:56:00,
2013-09-18 16:06:00,71.4,22.8,30.09,West,268,0.0,0.0,16,0.00,,,-99.99,Weather View 32 v60,2013-09-18 20:06:00,
2013-09-18 16:11:00,71.2,22.6,30.09,West,268,0.0,0.0,16,0.00,,,-99.99,Weather View 32 v60,2013-09-18 20:11:00,
2013-09-18 16:21:00,71.2,22.6,30.09,West,268,0.0,0.0,16,0.00,,,-99.99,Weather View 32 v60,2013-09-18 20:21:00,
2013-09-18 16:26:00,71.4,22.8,30.09,West,268,0.0,0.0,16,0.00,,,-99.99,Weather View 32 v60,2013-09-18 20:26:00,
2013-09-18 16:36:00,71.4,22.8,30.09,West,268,0.0,0.0,16,0.00,,,-99.99,Weather View 32 v60,2013-09-18 20:36:00,
2013-09-18 16:46:00,71.4,22.8,30.09,West,268,0.0,0.0,16,0.00,,,-99.99,Weather View 32 v60,2013-09-18 20:46:00,
2013-09-18 16:51:00,71.2,22.6,30.09,West,268,0.0,0.0,16,0.00,,,-99.99,Weather View 32 v60,2013-09-18 20:51:00,
2013-09-18 17:01:00,70.9,22.4,30.09,West,268,0.0,0.0,16,0.00,,,-99.99,Weather View 32 v60,2013-09-18 21:01:00,
2013-09-18 17:06:00,70.7,23.7,30.09,West,268,0.0,0.0,17,0.00,,,-99.99,Weather View 32 v60,2013-09-18 21:06:00,
2013-09-18 17:12:00,70.5,23.5,30.09,West,268,0.0,0.0,17,0.00,,,-99.99,Weather View 32 v60,2013-09-18 21:12:00,
2013-09-18 17:17:00,70.7,22.2,30.09,West,268,0.0,0.0,16,0.00,,,-99.99,Weather View 32 v60,2013-09-18 21:17:00,
2013-09-18 17:23:00,71.1,22.5,30.09,West,268,0.0,0.0,16,0.00,,,-99.99,Weather View 32 v60,2013-09-18 21:23:00,
2013-09-18 17:31:00,71.2,22.6,30.06,West,268,0.0,0.0,16,0.00,,,-99.99,Weather View 32 v60,2013-09-18 21:31:00,
2013-09-18 17:36:00,71.1,22.5,30.06,West,268,0.0,0.0,16,0.00,,,-99.99,Weather View 32 v60,2013-09-18 21:36:00,
2013-09-18 17:41:00,71.1,22.5,30.06,West,268,0.0,0.0,16,0.00,,,-99.99,Weather View 32 v60,2013-09-18 21:41:00,
2013-09-18 17:51:00,70.9,22.4,30.06,West,268,0.0,0.0,16,0.00,,,-99.99,Weather View 32 v60,2013-09-18 21:51:00,
2013-09-18 17:56:00,70.9,22.4,30.06,West,268,0.0,0.0,16,0.00,,,-99.99,Weather View 32 v60,2013-09-18 21:56:00,
2013-09-18 18:06:00,70.9,22.4,30.06,West,268,0.0,0.0,16,0.00,,,-99.99,Weather View 32 v60,2013-09-18 22:06:00,
2013-09-18 18:11:00,70.7,22.2,30.06,West,268,0.0,0.0,16,0.00,,,-99.99,Weather View 32 v60,2013-09-18 22:11:00,
2013-09-18 18:21:00,70.5,23.5,30.06,West,268,0.0,0.0,17,0.00,,,-99.99,Weather View 32 v60,2013-09-18 22:21:00,
2013-09-18 18:26:00,70.5,23.5,30.06,West,268,0.0,0.0,17,0.00,,,-99.99,Weather View 32 v60,2013-09-18 22:26:00,
2013-09-18 18:32:00,70.3,23.4,30.06,West,268,0.0,0.0,17,0.00,,,-99.99,Weather View 32 v60,2013-09-18 22:32:00,
2013-09-18 18:41:00,70.2,23.2,30.06,West,268,0.0,0.0,17,0.00,,,-99.99,Weather View 32 v60,2013-09-18 22:41:00,
2013-09-18 18:46:00,70.0,23.1,30.06,West,268,0.0,0.0,17,0.00,,,-99.99,Weather View 32 v60,2013-09-18 22:46:00,
2013-09-18 18:51:00,69.8,22.9,30.06,West,268,0.0,0.0,17,0.00,,,-99.99,Weather View 32 v60,2013-09-18 22:51:00,
2013-09-18 18:56:00,69.6,22.8,30.06,West,268,0.0,0.0,17,0.00,,,-99.99,Weather View 32 v60,2013-09-18 22:56:00,
2013-09-18 19:01:00,69.4,22.6,30.06,West,268,0.0,0.0,17,0.00,,,-99.99,Weather View 32 v60,2013-09-18 23:01:00,
2013-09-18 19:11:00,69.1,22.3,30.06,West,268,0.0,0.0,17,0.00,,,-99.99,Weather View 32 v60,2013-09-18 23:11:00,
2013-09-18 19:16:00,68.9,26.1,30.06,West,268,0.0,0.0,20,0.00,,,-99.99,Weather View 32 v60,2013-09-18 23:16:00,
2013-09-18 19:21:00,68.7,25.9,30.06,West,268,0.0,0.0,20,0.00,,,-99.99,Weather View 32 v60,2013-09-18 23:21:00,
2013-09-18 19:31:00,68.5,25.8,30.06,West,268,0.0,0.0,20,0.00,,,-99.99,Weather View 32 v60,2013-09-18 23:31:00,
2013-09-18 19:36:00,68.5,25.8,30.06,West,268,0.0,0.0,20,0.00,,,-99.99,Weather View 32 v60,2013-09-18 23:36:00,
2013-09-18 19:46:00,68.4,25.6,30.06,West,268,0.0,0.0,20,0.00,,,-99.99,Weather View 32 v60,2013-09-18 23:46:00,
2013-09-18 19:52:00,68.2,25.5,30.06,West,268,0.0,0.0,20,0.00,,,-99.99,Weather View 32 v60,2013-09-18 23:52:00,
2013-09-18 20:02:00,67.8,25.2,30.06,West,268,0.0,0.0,20,0.00,,,-99.99,Weather View 32 v60,2013-09-19 00:02:00,
2013-09-18 20:11:00,67.5,24.9,30.06,West,268,0.0,0.0,20,0.00,,,-99.99,Weather View 32 v60,2013-09-19 00:11:00,
2013-09-18 20:16:00,67.3,24.7,30.06,West,268,0.0,0.0,20,0.00,,,-99.99,Weather View 32 v60,2013-09-19 00:16:00,
2013-09-18 20:25:00,67.3,24.7,30.06,West,268,0.0,0.0,20,0.00,,,-99.99,Weather View 32 v60,2013-09-19 00:25:00,
2013-09-18 20:31:00,66.9,24.5,30.06,West,268,0.0,0.0,20,0.00,,,-99.99,Weather View 32 v60,2013-09-19 00:31:00,
2013-09-18 20:36:00,66.9,24.5,30.06,West,268,0.0,0.0,20,0.00,,,-99.99,Weather View 32 v60,2013-09-19 00:36:00,
2013-09-18 20:41:00,66.7,26.6,30.06,West,268,0.0,0.0,22,0.00,,,-99.99,Weather View 32 v60,2013-09-19 00:41:00,
2013-09-18 20:51:00,66.7,26.6,30.06,West,268,0.0,0.0,22,0.00,,,-99.99,Weather View 32 v60,2013-09-19 00:51:00,
2013-09-18 20:56:00,66.9,26.7,30.06,West,269,0.0,0.0,22,0.00,,,-99.99,Weather View 32 v60,2013-09-19 00:56:00,
2013-09-18 21:01:00,66.9,26.7,30.06,West,268,0.0,0.0,22,0.00,,,-99.99,Weather View 32 v60,2013-09-19 01:01:00,
2013-09-18 21:06:00,66.9,27.8,30.06,West,269,0.0,0.0,23,0.00,,,-99.99,Weather View 32 v60,2013-09-19 01:06:00,
2013-09-18 21:12:00,66.9,27.8,30.09,West,269,0.0,0.0,23,0.00,,,-99.99,Weather View 32 v60,2013-09-19 01:12:00,
2013-09-18 21:22:00,66.9,27.8,30.09,West,268,0.0,0.0,23,0.00,,,-99.99,Weather View 32 v60,2013-09-19 01:22:00,
2013-09-18 21:31:00,66.9,27.8,30.09,West,268,0.0,0.0,23,0.00,,,-99.99,Weather View 32 v60,2013-09-19 01:31:00,
2013-09-18 21:36:00,66.9,27.8,30.09,West,268,0.0,0.0,23,0.00,,,-99.99,Weather View 32 v60,2013-09-19 01:36:00,
2013-09-18 21:42:00,66.9,27.8,30.09,West,268,0.0,0.0,23,0.00,,,-99.99,Weather View 32 v60,2013-09-19 01:42:00,
2013-09-18 21:51:00,66.9,27.8,30.09,West,268,0.0,0.0,23,0.00,,,-99.99,Weather View 32 v60,2013-09-19 01:51:00,
2013-09-18 21:56:00,66.9,27.8,30.09,West,268,0.0,0.0,23,0.00,,,-99.99,Weather View 32 v60,2013-09-19 01:56:00,
2013-09-18 22:06:00,66.9,28.9,30.09,West,269,0.0,0.0,24,0.00,,,-99.99,Weather View 32 v60,2013-09-19 02:06:00,
2013-09-18 22:11:00,66.9,28.9,30.09,West,268,0.0,0.0,24,0.00,,,-99.99,Weather View 32 v60,2013-09-19 02:11:00,
2013-09-18 22:21:00,67.1,29.0,30.09,West,269,0.0,0.0,24,0.00,,,-99.99,Weather View 32 v60,2013-09-19 02:21:00,
2013-09-18 22:26:00,66.9,28.9,30.09,West,268,0.0,0.0,24,0.00,,,-99.99,Weather View 32 v60,2013-09-19 02:26:00,
2013-09-18 22:32:00,66.9,28.9,30.09,West,268,0.0,0.0,24,0.00,,,-99.99,Weather View 32 v60,2013-09-19 02:32:00,
2013-09-18 22:41:00,66.7,28.7,30.09,West,269,0.0,0.0,24,0.00,,,-99.99,Weather View 32 v60,2013-09-19 02:41:00,
2013-09-18 22:46:00,66.6,28.6,30.09,West,268,0.0,0.0,24,0.00,,,-99.99,Weather View 32 v60,2013-09-19 02:46:00,
2013-09-18 22:52:00,66.6,28.6,30.09,West,268,0.0,0.0,24,0.00,,,-99.99,Weather View 32 v60,2013-09-19 02:52:00,
2013-09-18 22:57:00,66.6,29.6,30.09,West,269,0.0,0.0,25,0.00,,,-99.99,Weather View 32 v60,2013-09-19 02:57:00,
2013-09-18 23:06:00,66.6,29.6,30.09,West,268,0.0,0.0,25,0.00,,,-99.99,Weather View 32 v60,2013-09-19 03:06:00,
2013-09-18 23:16:00,66.4,30.4,30.09,West,268,0.0,0.0,26,0.00,,,-99.99,Weather View 32 v60,2013-09-19 03:16:00,
2013-09-18 23:21:00,66.4,30.4,30.09,West,269,0.0,0.0,26,0.00,,,-99.99,Weather View 32 v60,2013-09-19 03:21:00,
2013-09-18 23:27:00,66.4,30.4,30.09,West,268,0.0,0.0,26,0.00,,,-99.99,Weather View 32 v60,2013-09-19 03:27:00,
2013-09-18 23:36:00,66.2,31.2,30.09,West,269,0.0,0.0,27,0.00,,,-99.99,Weather View 32 v60,2013-09-19 03:36:00,
2013-09-18 23:46:00,66.0,31.0,30.09,West,268,0.0,0.0,27,0.00,,,-99.99,Weather View 32 v60,2013-09-19 03:46:00,
2013-09-18 23:51:00,66.0,31.0,30.09,West,268,0.0,0.0,27,0.00,,,-99.99,Weather View 32 v60,2013-09-19 03:51:00,
2013-09-18 23:56:00,66.0,31.9,30.09,West,268,0.0,0.0,28,0.00,,,-99.99,Weather View 32 v60,2013-09-19 03:56:00,